Regional Weather Roundup
Issued by NWS Midland/Odessa, TX

Skip options and go directly to product.
Home | Oldest Version | Next Version | Current Version | All | Text Only | Save Text | Print | Product List | Glossary On

Skip product version selection by date and time.   
838
ASUS44 KMAF 020410
RWRMAF
MIDLAND AREA WEATHER ROUNDUP
NATIONAL WEATHER SERVICE MIDLAND TX
1100 PM CDT SAT AUG 01 2015

...IN SOUTHWEST TEXAS AND SOUTHEAST NEW MEXICO...

CITY           SKY/WX    TMP DP  RH WIND       PRES   REMARKS
ALPINE         PTCLDY    75  60  58 S7        30.19R
ANDREWS        FAIR      78  63  59 SE3       30.07R
ARTESIA        MOCLDY    84  57  39 SE12G18   30.06R
BIG SPRING     PTCLDY    78  61  56 SE5       30.05S
CARLSBAD       LGT RAIN  81  63  54 E14       30.03R
DRYDEN           N/A     84  64  50 NW3       29.99R
FORT STOCKTON  LGT RAIN  82  57  42 SE12      30.04R
GUAD PASS      CLOUDY    76  53  44 E12       30.20R
HOBBS          CLOUDY    77  64  65 W17G25    30.13R
MARFA          CLEAR     70  63  78 E7        30.17R
MIDLAND AIRPK  PTCLDY    83  61  47 SE6       30.04S
MIDLAND INTL   PTCLDY    81  64  56 SE8       30.04R
ODESSA         CLEAR     83  61  47 S10       30.05R
PECOS          CLEAR     84  62  47 SE9       30.00R
PRESIDIO       FAIR      88  59  37 NE8       29.98R
SEMINOLE       MOCLDY    82  63  52 NE9       30.11R
SNYDER         MOCLDY    83  64  53 E3        30.05R
WINK           PTCLDY    85  60  42 SE14G22   30.02R
$$
...OTHER STATIONS IN TEXAS...

CITY           SKY/WX    TMP DP  RH WIND       PRES   REMARKS
ABILENE        CLOUDY    84  64  50 SE8       30.00S
AMARILLO       CLOUDY    73  69  87 SE12      30.09R
AUSTIN         CLEAR     75  65  70 CALM      29.94R
BROWNSVILLE    PTCLDY    79  74  84 S5        29.93R
CORPUS CHRISTI MOCLDY    81  73  76 SE8       29.92R
DALLAS FTW     MOCLDY    85  59  41 SE7       29.96R
DEL RIO        CLEAR     82  75  79 E6        29.92R
EL PASO        PTCLDY    85  56  37 E12       30.03R
HOUSTON INT    CLEAR     79  65  62 CALM      29.91S
LUBBOCK        TSTM      71  63  75 E10       30.05S
SAN ANGELO     CLEAR     83  60  45 SE7       29.99R
SAN ANTONIO    PTCLDY    84  59  42 E8        29.95R
WACO           PTCLDY    84  62  47 E5        29.95R
WICHITA FALLS  NOT AVBL
$$
...OTHER LOCATIONS IN NEW MEXICO...

CITY           SKY/WX    TMP DP  RH WIND       PRES   REMARKS
ALAMAGORDO     MOCLDY    82  54  36 S12       30.08R
ALBUQUERQUE    LGT RAIN  67  61  81 NW7       30.22R
CANNON AFB     CLOUDY    71  62  71 NW7       30.12R
CLOVIS         CLOUDY    72  61  68 S6        30.12F
HOLLOMAN AFB   MOCLDY    84  55  36 SE16      30.05R
ROSWELL        MOCLDY    82  57  42 SE14      30.05R
RUIDOSO          N/A    N/A N/A N/A MISG        N/A
SANTA FE       CLOUDY    67  56  67 NE8       30.25R
TRUTH OR CONSE LGT RAIN  80  56  43 NW16      30.12R
TUCUMCARI      LGT RAIN  71  62  73 CALM      30.08R
$$

USA.gov is the U.S. government's official web portal to all federal, state and local government web resources and services.